^^
Saratoga-Weather Station Historical Data
Daily Summary for April 9, 2020 Units:  Metric    English   Both
Daily Weekly Monthly Yearly Custom
  High: Low: Average:
Temperature: 15.3 °C 13 °C 14 °C
Dew Point: 13.7 °C 12.2 °C 12.8 °C
Humidity: 95% 84% 92%
Wind Speed: 14.5km/h 0km/h 2.8km/h
Wind Gust: 17.7km/h - -
Wind- - West
Pressure: 1018.6 hPa 1017.3 hPa -
Precipitation: 9.4 mm    
Historical Graphs
 
 
Tabular Data for April 9, 2020
Time Temperature Dew Point Pressure Wind Wind Speed Wind Gust Humidity Rainfall Rate (Hourly) solar
00:02 15.2 °C 12.7 °C 1018.3 hPa WSW 3.2 km/h 12.9 km/h 85% 0.0 mm 0 W/m2
00:07 15.2 °C 12.7 °C 1018.6 hPa WSW 1.4 km/h 14.5 km/h 85% 0.0 mm 0 W/m2
00:12 15.2 °C 12.7 °C 1018.3 hPa WNW 4.7 km/h 8 km/h 85% 0.0 mm 0 W/m2
00:17 15.3 °C 12.8 °C 1018.6 hPa NW 6.4 km/h 14.5 km/h 85% 0.0 mm 0 W/m2
00:22 15.3 °C 12.8 °C 1018.6 hPa West 9.7 km/h 9.7 km/h 85% 0.0 mm 0 W/m2
00:27 15.3 °C 12.8 °C 1018.6 hPa North 1.4 km/h 11.3 km/h 85% 0.0 mm 0 W/m2
00:32 15.3 °C 12.6 °C 1018.6 hPa WSW 7.9 km/h 8 km/h 84% 0.0 mm 0 W/m2
00:37 15.3 °C 12.8 °C 1018.6 hPa Calm   1.6 km/h 85% 0.0 mm 0 W/m2
00:42 15.3 °C 12.6 °C 1018.6 hPa NW 3.2 km/h 4.8 km/h 84% 0.0 mm 0 W/m2
00:47 15.3 °C 12.6 °C 1018.6 hPa NW 3.2 km/h 4.8 km/h 84% 0.0 mm 0 W/m2
00:52 15.3 °C 12.6 °C 1018.6 hPa North 4.7 km/h 6.4 km/h 84% 0.0 mm 0 W/m2
00:57 15.3 °C 12.6 °C 1018.6 hPa NW 1.4 km/h 9.7 km/h 84% 0.0 mm 0 W/m2
01:02 15.3 °C 12.6 °C 1018.6 hPa Calm   6.4 km/h 84% 0.0 mm 0 W/m2
01:07 15.3 °C 12.6 °C 1018.6 hPa WNW 6.4 km/h 6.4 km/h 84% 0.0 mm 0 W/m2
01:12 15.3 °C 12.8 °C 1018.3 hPa NW 4.7 km/h 9.7 km/h 85% 0.0 mm 0 W/m2
01:17 15.2 °C 12.7 °C 1018.3 hPa NW 1.4 km/h 9.7 km/h 85% 0.0 mm 0 W/m2
01:22 15.2 °C 12.7 °C 1018.6 hPa Calm   3.2 km/h 85% 0.0 mm 0 W/m2
01:27 15.2 °C 12.7 °C 1018.6 hPa NW 1.4 km/h 4.8 km/h 85% 0.0 mm 0 W/m2
01:32 15.1 °C 12.8 °C 1018.6 hPa WSW 1.4 km/h 6.4 km/h 86% 0.0 mm 0 W/m2
01:37 15 °C 12.7 °C 1018.3 hPa NNE 3.2 km/h 4.8 km/h 86% 0.0 mm 0 W/m2
01:42 14.9 °C 12.6 °C 1018.6 hPa WSW 3.2 km/h 4.8 km/h 86% 0.0 mm 0 W/m2
01:47 14.9 °C 12.6 °C 1018.6 hPa SW 1.4 km/h 6.4 km/h 86% 0.0 mm 0 W/m2
01:52 14.9 °C 12.8 °C 1018.6 hPa NW 6.4 km/h 6.4 km/h 87% 0.0 mm 0 W/m2
01:57 14.8 °C 12.7 °C 1018.6 hPa NNW 4.7 km/h 11.3 km/h 87% 0.0 mm 0 W/m2
02:02 14.8 °C 12.7 °C 1018.6 hPa WNW 4.7 km/h 6.4 km/h 87% 0.0 mm 0 W/m2
02:07 14.8 °C 12.8 °C 1018.6 hPa NW 1.4 km/h 3.2 km/h 88% 0.0 mm 0 W/m2
02:12 14.7 °C 12.7 °C 1018.6 hPa NNW 3.2 km/h 4.8 km/h 88% 0.0 mm 0 W/m2
02:17 14.6 °C 12.8 °C 1018.6 hPa NNW 3.2 km/h 3.2 km/h 89% 0.0 mm 0 W/m2
02:22 14.4 °C 12.8 °C 1018.3 hPa NW 3.2 km/h 6.4 km/h 90% 0.0 mm 0 W/m2
02:27 14.3 °C 12.7 °C 1018.6 hPa NW 3.2 km/h 4.8 km/h 90% 0.0 mm 0 W/m2
02:32 14.2 °C 12.8 °C 1018.6 hPa NW 3.2 km/h 4.8 km/h 91% 0.0 mm 0 W/m2
02:37 14.2 °C 12.8 °C 1018.3 hPa WNW 3.2 km/h 6.4 km/h 91% 0.0 mm 0 W/m2
02:42 14.2 °C 12.8 °C 1018.6 hPa NW 1.4 km/h 6.4 km/h 91% 0.2 mm 0 W/m2
02:47 14.2 °C 12.8 °C 1018.3 hPa WNW 6.4 km/h 16.1 km/h 91% 0.2 mm 0 W/m2
02:52 14.2 °C 12.8 °C 1018.3 hPa SW 3.2 km/h 9.7 km/h 91% 0.2 mm 0 W/m2
02:57 14.2 °C 12.8 °C 1018.3 hPa WSW 1.4 km/h 12.9 km/h 91% 0.2 mm 0 W/m2
03:02 14.1 °C 12.8 °C 1018.3 hPa NNE 1.4 km/h 4.8 km/h 92% 0.2 mm 0 W/m2
03:07 14.1 °C 12.8 °C 1018.3 hPa North 1.4 km/h 4.8 km/h 92% 0.2 mm 0 W/m2
03:12 14.1 °C 12.8 °C 1018.3 hPa NNW 3.2 km/h 3.2 km/h 92% 0.2 mm 0 W/m2
03:17 14.1 °C 12.8 °C 1018.3 hPa NNW 1.4 km/h 1.6 km/h 92% 0.2 mm 0 W/m2
03:22 14.1 °C 12.8 °C 1018.3 hPa WNW 4.7 km/h 6.4 km/h 92% 0.2 mm 0 W/m2
03:27 14.1 °C 12.7 °C 1018.3 hPa NW 4.7 km/h 6.4 km/h 91% 0.2 mm 0 W/m2
03:32 14.2 °C 12.8 °C 1018.3 hPa NW 3.2 km/h 6.4 km/h 91% 0.2 mm 0 W/m2
03:37 14.2 °C 12.8 °C 1018.3 hPa NNW 1.4 km/h 4.8 km/h 91% 0.2 mm 0 W/m2
03:42 14.2 °C 12.8 °C 1018.0 hPa NW 3.2 km/h 8 km/h 91% 0.0 mm 0 W/m2
03:47 14.2 °C 12.8 °C 1018.0 hPa SE 6.4 km/h 6.4 km/h 91% 0.0 mm 0 W/m2
03:52 14.2 °C 12.6 °C 1018.0 hPa NW 1.4 km/h 8 km/h 90% 0.0 mm 0 W/m2
03:57 14.3 °C 12.7 °C 1018.0 hPa North 6.4 km/h 6.4 km/h 90% 0.0 mm 0 W/m2
04:02 14.3 °C 12.7 °C 1018.0 hPa SW 1.4 km/h 4.8 km/h 90% 0.0 mm 0 W/m2
04:07 14.3 °C 12.7 °C 1018.0 hPa NW 1.4 km/h 6.4 km/h 90% 0.0 mm 0 W/m2
04:12 14.3 °C 12.7 °C 1018.0 hPa NNW 3.2 km/h 8 km/h 90% 0.0 mm 0 W/m2
04:17 14.3 °C 12.7 °C 1018.0 hPa WNW 1.4 km/h 4.8 km/h 90% 0.0 mm 0 W/m2
04:22 14.3 °C 12.7 °C 1018.0 hPa NW 11.1 km/h 11.3 km/h 90% 0.0 mm 0 W/m2
04:27 14.4 °C 12.8 °C 1018.0 hPa North 1.4 km/h 12.9 km/h 90% 0.0 mm 0 W/m2
04:32 14.4 °C 12.6 °C 1018.0 hPa North 7.9 km/h 8 km/h 89% 0.0 mm 0 W/m2
04:37 14.4 °C 12.6 °C 1018.0 hPa Calm   12.9 km/h 89% 0.0 mm 0 W/m2
04:42 14.4 °C 12.6 °C 1018.0 hPa NW 1.4 km/h 9.7 km/h 89% 0.0 mm 0 W/m2
04:47 14.4 °C 12.6 °C 1018.0 hPa NW 4.7 km/h 6.4 km/h 89% 0.0 mm 0 W/m2
04:52 14.4 °C 12.6 °C 1018.0 hPa NW 6.4 km/h 9.7 km/h 89% 0.0 mm 0 W/m2
04:57 14.4 °C 12.6 °C 1018.0 hPa ENE 4.7 km/h 6.4 km/h 89% 0.0 mm 0 W/m2
05:02 14.4 °C 12.6 °C 1018.0 hPa West 3.2 km/h 6.4 km/h 89% 0.0 mm 0 W/m2
05:07 14.4 °C 12.6 °C 1018.0 hPa NW 3.2 km/h 4.8 km/h 89% 0.0 mm 0 W/m2
05:12 14.4 °C 12.6 °C 1018.0 hPa North 4.7 km/h 6.4 km/h 89% 0.0 mm 0 W/m2
05:17 14.4 °C 12.6 °C 1018.0 hPa North 1.4 km/h 3.2 km/h 89% 0.0 mm 0 W/m2
05:22 14.4 °C 12.6 °C 1018.0 hPa NW 1.4 km/h 4.8 km/h 89% 0.0 mm 0 W/m2
05:27 14.4 °C 12.6 °C 1018.0 hPa North 1.4 km/h 3.2 km/h 89% 0.0 mm 0 W/m2
05:32 14.3 °C 12.5 °C 1018.0 hPa SW 1.4 km/h 6.4 km/h 89% 0.0 mm 0 W/m2
05:37 14.3 °C 12.5 °C 1018.0 hPa NW 3.2 km/h 4.8 km/h 89% 0.0 mm 0 W/m2
05:42 14.3 °C 12.5 °C 1018.0 hPa WNW 3.2 km/h 4.8 km/h 89% 0.0 mm 0 W/m2
05:47 14.3 °C 12.5 °C 1018.0 hPa NW 3.2 km/h 8 km/h 89% 0.0 mm 0 W/m2
05:52 14.3 °C 12.7 °C 1018.0 hPa NW 3.2 km/h 6.4 km/h 90% 0.0 mm 0 W/m2
05:57 14.2 °C 12.6 °C 1018.0 hPa NNE 1.4 km/h 6.4 km/h 90% 0.0 mm 0 W/m2
06:02 14.2 °C 12.6 °C 1018.0 hPa NW 1.4 km/h 4.8 km/h 90% 0.0 mm 0 W/m2
06:07 14.1 °C 12.5 °C 1018.0 hPa North 1.4 km/h 3.2 km/h 90% 0.0 mm 0 W/m2
06:12 14.1 °C 12.7 °C 1018.0 hPa West 4.7 km/h 6.4 km/h 91% 0.0 mm 0 W/m2
06:17 13.9 °C 12.5 °C 1018.0 hPa Calm   3.2 km/h 91% 0.0 mm 0 W/m2
06:22 13.8 °C 12.4 °C 1018.0 hPa North 1.4 km/h 1.6 km/h 91% 0.0 mm 0 W/m2
06:28 13.8 °C 12.5 °C 1018.0 hPa NNW 3.2 km/h 8 km/h 92% 0.0 mm 0 W/m2
06:33 13.7 °C 12.4 °C 1018.0 hPa NNW 3.2 km/h 3.2 km/h 92% 0.0 mm 0 W/m2
06:38 13.6 °C 12.5 °C 1018.0 hPa NNW 1.4 km/h 8 km/h 93% 0.2 mm 0 W/m2
06:43 13.6 °C 12.5 °C 1018.0 hPa North 3.2 km/h 3.2 km/h 93% 0.2 mm 0 W/m2
06:48 13.5 °C 12.4 °C 1018.0 hPa NW 4.7 km/h 6.4 km/h 93% 0.5 mm 0 W/m2
06:53 13.4 °C 12.3 °C 1018.0 hPa NW 3.2 km/h 3.2 km/h 93% 0.5 mm 0 W/m2
06:58 13.3 °C 12.4 °C 1018.0 hPa NW 3.2 km/h 4.8 km/h 94% 0.5 mm 0 W/m2
07:03 13.3 °C 12.4 °C 1018.0 hPa Calm   1.6 km/h 94% 0.5 mm 0 W/m2
07:08 13.3 °C 12.4 °C 1018.0 hPa NW 3.2 km/h 6.4 km/h 94% 0.5 mm 0 W/m2
07:13 13.2 °C 12.3 °C 1018.0 hPa SSW 3.2 km/h 8 km/h 94% 0.5 mm 0 W/m2
07:18 13.2 °C 12.3 °C 1017.6 hPa NNW 3.2 km/h 4.8 km/h 94% 0.8 mm 0 W/m2
07:23 13.2 °C 12.3 °C 1018.0 hPa Calm   6.4 km/h 94% 0.8 mm 0 W/m2
07:28 13.2 °C 12.3 °C 1017.6 hPa Calm   3.2 km/h 94% 0.8 mm 0 W/m2
07:33 13.2 °C 12.3 °C 1018.0 hPa Calm   1.6 km/h 94% 0.8 mm 0 W/m2
07:38 13.2 °C 12.3 °C 1017.6 hPa Calm   3.2 km/h 94% 0.5 mm 0 W/m2
07:43 13.1 °C 12.2 °C 1017.6 hPa WNW 1.4 km/h 4.8 km/h 94% 0.5 mm 0 W/m2
07:48 13.1 °C 12.3 °C 1017.6 hPa NNW 1.4 km/h 1.6 km/h 95% 0.5 mm 0 W/m2
07:53 13.1 °C 12.3 °C 1017.6 hPa Calm   4.8 km/h 95% 0.5 mm 0 W/m2
07:58 13.1 °C 12.2 °C 1018.0 hPa North 4.7 km/h 4.8 km/h 94% 0.2 mm 0 W/m2
08:03 13.1 °C 12.2 °C 1018.0 hPa ENE 1.4 km/h 3.2 km/h 94% 0.5 mm 0 W/m2
08:08 13.1 °C 12.3 °C 1017.6 hPa NNW 3.2 km/h 4.8 km/h 95% 0.5 mm 0 W/m2
08:13 13.1 °C 12.3 °C 1017.6 hPa NW 3.2 km/h 4.8 km/h 95% 0.5 mm 5 W/m2
08:18 13.1 °C 12.3 °C 1017.6 hPa Calm     95% 0.2 mm 9 W/m2
08:23 13.1 °C 12.3 °C 1017.6 hPa NW 1.4 km/h 3.2 km/h 95% 0.2 mm 12 W/m2
08:28 13.1 °C 12.3 °C 1017.6 hPa Calm   1.6 km/h 95% 0.5 mm 16 W/m2
08:33 13.1 °C 12.3 °C 1018.0 hPa Calm   8 km/h 95% 0.5 mm 16 W/m2
08:38 13.1 °C 12.3 °C 1018.0 hPa Calm   1.6 km/h 95% 0.5 mm 16 W/m2
08:43 13.1 °C 12.3 °C 1018.0 hPa Calm   8 km/h 95% 0.5 mm 16 W/m2
08:48 13.1 °C 12.3 °C 1018.0 hPa North 1.4 km/h 1.6 km/h 95% 0.5 mm 12 W/m2
08:53 13.1 °C 12.3 °C 1018.0 hPa Calm   1.6 km/h 95% 0.5 mm 12 W/m2
08:58 13 °C 12.2 °C 1018.0 hPa NW 1.4 km/h 1.6 km/h 95% 0.5 mm 16 W/m2
09:03 13 °C 12.2 °C 1018.0 hPa ENE 1.4 km/h 3.2 km/h 95% 0.5 mm 30 W/m2
09:08 13 °C 12.2 °C 1018.0 hPa Calm   1.6 km/h 95% 0.5 mm 26 W/m2
09:13 13 °C 12.2 °C 1018.0 hPa NE 1.4 km/h 1.6 km/h 95% 0.5 mm 33 W/m2
09:18 13.1 °C 12.3 °C 1018.0 hPa NNW 3.2 km/h 4.8 km/h 95% 0.5 mm 37 W/m2
09:23 13.1 °C 12.3 °C 1018.0 hPa North 1.4 km/h 1.6 km/h 95% 0.5 mm 44 W/m2
09:28 13.1 °C 12.3 °C 1018.0 hPa Calm   6.4 km/h 95% 0.2 mm 46 W/m2
09:33 13.1 °C 12.3 °C 1018.0 hPa Calm   3.2 km/h 95% 0.5 mm 51 W/m2
09:38 13.2 °C 12.4 °C 1018.0 hPa Calm   6.4 km/h 95% 0.5 mm 70 W/m2
09:43 13.2 °C 12.4 °C 1018.0 hPa Calm   4.8 km/h 95% 0.5 mm 77 W/m2
09:48 13.2 °C 12.4 °C 1018.0 hPa NNW 4.7 km/h 6.4 km/h 95% 0.2 mm 60 W/m2
09:53 13.3 °C 12.5 °C 1018.0 hPa NW 6.4 km/h 8 km/h 95% 0.2 mm 30 W/m2
09:58 13.3 °C 12.5 °C 1018.3 hPa NNW 1.4 km/h 4.8 km/h 95% 0.2 mm 25 W/m2
10:03 13.3 °C 12.5 °C 1018.0 hPa Calm   8 km/h 95% 0.2 mm 35 W/m2
10:08 13.3 °C 12.4 °C 1018.3 hPa NW 1.4 km/h 4.8 km/h 94% 0.2 mm 32 W/m2
10:13 13.3 °C 12.4 °C 1018.0 hPa Calm   1.6 km/h 94% 0.2 mm 37 W/m2
10:18 13.3 °C 12.4 °C 1018.3 hPa Calm   4.8 km/h 94% 0.2 mm 40 W/m2
10:23 13.3 °C 12.4 °C 1018.3 hPa NNE 1.4 km/h 1.6 km/h 94% 0.2 mm 37 W/m2
10:28 13.3 °C 12.4 °C 1018.0 hPa Calm     94% 0.2 mm 37 W/m2
10:34 13.4 °C 12.5 °C 1018.0 hPa NE 3.2 km/h 3.2 km/h 94% 0.0 mm 63 W/m2
10:39 13.4 °C 12.5 °C 1018.3 hPa Calm   3.2 km/h 94% 0.0 mm 35 W/m2
10:44 13.4 °C 12.5 °C 1018.3 hPa North 3.2 km/h 3.2 km/h 94% 0.0 mm 39 W/m2
10:49 13.4 °C 12.5 °C 1018.0 hPa Calm   1.6 km/h 94% 0.0 mm 37 W/m2
10:54 13.4 °C 12.5 °C 1018.0 hPa NE 3.2 km/h 3.2 km/h 94% 0.0 mm 58 W/m2
10:59 13.4 °C 12.5 °C 1018.0 hPa Calm   1.6 km/h 94% 0.0 mm 51 W/m2
11:04 13.4 °C 12.5 °C 1018.0 hPa Calm     94% 0.2 mm 53 W/m2
11:09 13.4 °C 12.5 °C 1018.0 hPa WSW 1.4 km/h 1.6 km/h 94% 0.5 mm 44 W/m2
11:14 13.4 °C 12.5 °C 1018.0 hPa East 1.4 km/h 6.4 km/h 94% 0.5 mm 67 W/m2
11:19 13.4 °C 12.5 °C 1018.0 hPa Calm   3.2 km/h 94% 0.5 mm 100 W/m2
11:24 13.4 °C 12.5 °C 1018.0 hPa WNW 1.4 km/h 3.2 km/h 94% 0.5 mm 109 W/m2
11:29 13.5 °C 12.6 °C 1018.0 hPa SE 3.2 km/h 3.2 km/h 94% 0.5 mm 95 W/m2
11:34 13.5 °C 12.6 °C 1018.0 hPa North 1.4 km/h 4.8 km/h 94% 0.5 mm 62 W/m2
11:39 13.6 °C 12.7 °C 1018.3 hPa West 1.4 km/h 9.7 km/h 94% 0.5 mm 72 W/m2
11:44 13.6 °C 12.7 °C 1018.0 hPa East 3.2 km/h 4.8 km/h 94% 0.8 mm 105 W/m2
11:49 13.6 °C 12.7 °C 1018.0 hPa NW 6.4 km/h 11.3 km/h 94% 1.0 mm 109 W/m2
11:54 13.6 °C 12.7 °C 1018.3 hPa West 1.4 km/h 3.2 km/h 94% 1.3 mm 105 W/m2
11:59 13.6 °C 12.7 °C 1018.3 hPa NW 6.4 km/h 11.3 km/h 94% 1.5 mm 81 W/m2
12:04 13.6 °C 12.7 °C 1018.3 hPa ESE 1.4 km/h 6.4 km/h 94% 1.3 mm 146 W/m2
12:09 13.7 °C 12.8 °C 1018.3 hPa WNW 3.2 km/h 9.7 km/h 94% 1.0 mm 148 W/m2
12:14 13.7 °C 12.8 °C 1018.3 hPa Calm   3.2 km/h 94% 1.3 mm 162 W/m2
12:19 13.7 °C 12.8 °C 1018.0 hPa NNW 1.4 km/h 4.8 km/h 94% 1.3 mm 162 W/m2
12:24 13.8 °C 12.9 °C 1018.0 hPa NNW 6.4 km/h 8 km/h 94% 1.3 mm 199 W/m2
12:29 13.9 °C 13.1 °C 1018.0 hPa North 1.4 km/h 3.2 km/h 95% 1.3 mm 162 W/m2
12:34 13.9 °C 12.9 °C 1018.0 hPa West 1.4 km/h 3.2 km/h 94% 1.3 mm 130 W/m2
12:39 13.9 °C 12.9 °C 1018.3 hPa North 1.4 km/h 3.2 km/h 94% 1.5 mm 105 W/m2
12:44 13.9 °C 12.9 °C 1018.3 hPa NW 6.4 km/h 9.7 km/h 94% 1.3 mm 125 W/m2
12:49 13.9 °C 12.9 °C 1018.3 hPa NNW 3.2 km/h 4.8 km/h 94% 1.0 mm 142 W/m2
12:54 13.9 °C 12.9 °C 1018.3 hPa WSW 1.4 km/h 8 km/h 94% 0.5 mm 118 W/m2
12:59 13.9 °C 12.9 °C 1018.3 hPa NW 3.2 km/h 6.4 km/h 94% 0.5 mm 86 W/m2
13:04 13.9 °C 12.9 °C 1018.0 hPa WSW 6.4 km/h 8 km/h 94% 0.8 mm 91 W/m2
13:09 13.9 °C 12.9 °C 1018.0 hPa NNE 1.4 km/h 4.8 km/h 94% 1.0 mm 83 W/m2
13:14 13.9 °C 12.9 °C 1018.0 hPa West 4.7 km/h 12.9 km/h 94% 1.0 mm 84 W/m2
13:19 13.9 °C 12.9 °C 1018.0 hPa WNW 3.2 km/h 4.8 km/h 94% 1.0 mm 62 W/m2
13:24 13.9 °C 12.9 °C 1018.0 hPa Calm   12.9 km/h 94% 1.5 mm 54 W/m2
13:29 13.9 °C 12.9 °C 1018.0 hPa West 1.4 km/h 4.8 km/h 94% 2.0 mm 47 W/m2
13:34 13.9 °C 12.9 °C 1018.0 hPa NNW 4.7 km/h 6.4 km/h 94% 2.3 mm 81 W/m2
13:39 13.9 °C 12.9 °C 1018.0 hPa WNW 1.4 km/h 4.8 km/h 94% 2.8 mm 113 W/m2
13:44 13.9 °C 12.9 °C 1018.0 hPa Calm   6.4 km/h 94% 3.0 mm 176 W/m2
13:49 14.1 °C 13.1 °C 1018.0 hPa NW 3.2 km/h 6.4 km/h 94% 3.3 mm 230 W/m2
13:54 14.3 °C 13.5 °C 1018.0 hPa WNW 1.4 km/h 3.2 km/h 95% 3.3 mm 301 W/m2
13:59 14.4 °C 13.4 °C 1018.0 hPa West 4.7 km/h 6.4 km/h 94% 3.3 mm 214 W/m2
14:04 14.4 °C 13.4 °C 1018.0 hPa SW 4.7 km/h 8 km/h 94% 3.0 mm 153 W/m2
14:09 14.4 °C 13.4 °C 1018.0 hPa NW 4.7 km/h 17.7 km/h 94% 2.8 mm 114 W/m2
14:14 14.4 °C 13.3 °C 1018.0 hPa WNW 3.2 km/h 6.4 km/h 93% 2.5 mm 127 W/m2
14:19 14.5 °C 13.4 °C 1018.0 hPa West 9.7 km/h 17.7 km/h 93% 2.3 mm 88 W/m2
14:24 14.5 °C 13.4 °C 1018.0 hPa WNW 11.1 km/h 12.9 km/h 93% 1.8 mm 86 W/m2
14:29 14.4 °C 13.3 °C 1018.0 hPa WNW 3.2 km/h 11.3 km/h 93% 1.5 mm 88 W/m2
14:34 14.4 °C 13.3 °C 1018.0 hPa WNW 4.7 km/h 12.9 km/h 93% 1.0 mm 91 W/m2
14:39 14.4 °C 13.3 °C 1018.0 hPa NW 4.7 km/h 6.4 km/h 93% 0.5 mm 123 W/m2
14:44 14.5 °C 13.4 °C 1017.6 hPa WNW 3.2 km/h 8 km/h 93% 0.2 mm 192 W/m2
14:49 14.6 °C 13.6 °C 1017.6 hPa SW 7.9 km/h 8 km/h 94% 0.0 mm 202 W/m2
14:54 14.6 °C 13.5 °C 1017.6 hPa NW 1.4 km/h 4.8 km/h 93% 0.0 mm 200 W/m2
14:59 14.7 °C 13.6 °C 1017.6 hPa Calm   6.4 km/h 93% 0.0 mm 132 W/m2
15:04 14.8 °C 13.7 °C 1017.6 hPa West 4.7 km/h 4.8 km/h 93% 0.0 mm 118 W/m2
15:09 14.8 °C 13.7 °C 1017.6 hPa WNW 4.7 km/h 6.4 km/h 93% 0.0 mm 137 W/m2
15:14 14.8 °C 13.7 °C 1017.6 hPa Calm   1.6 km/h 93% 0.0 mm 51 W/m2
15:19 14.8 °C 13.7 °C 1017.6 hPa East 1.4 km/h 3.2 km/h 93% 0.0 mm 47 W/m2
15:24 14.7 °C 13.6 °C 1017.6 hPa NW 3.2 km/h 6.4 km/h 93% 0.0 mm 40 W/m2
15:29 14.7 °C 13.6 °C 1017.6 hPa NNW 4.7 km/h 4.8 km/h 93% 0.0 mm 62 W/m2
15:34 14.7 °C 13.6 °C 1017.3 hPa SW 1.4 km/h 3.2 km/h 93% 0.0 mm 60 W/m2
15:40 14.7 °C 13.6 °C 1017.3 hPa WSW 1.4 km/h 9.7 km/h 93% 0.0 mm 84 W/m2
15:45 14.7 °C 13.6 °C 1017.6 hPa WNW 4.7 km/h 4.8 km/h 93% 0.0 mm 88 W/m2
15:50 14.6 °C 13.5 °C 1017.6 hPa WNW 4.7 km/h 9.7 km/h 93% 0.2 mm 46 W/m2
15:55 14.7 °C 13.6 °C 1017.6 hPa WNW 3.2 km/h 6.4 km/h 93% 0.2 mm 32 W/m2
16:00 14.6 °C 13.5 °C 1017.3 hPa NW 3.2 km/h 9.7 km/h 93% 0.2 mm 47 W/m2
16:05 14.7 °C 13.6 °C 1017.3 hPa SW 1.4 km/h 4.8 km/h 93% 0.2 mm 54 W/m2
16:10 14.7 °C 13.7 °C 1017.3 hPa West 3.2 km/h 8 km/h 94% 0.2 mm 70 W/m2
16:15 14.7 °C 13.7 °C 1017.3 hPa NW 1.4 km/h 6.4 km/h 94% 0.5 mm 47 W/m2
16:20 14.7 °C 13.7 °C 1017.3 hPa WNW 3.2 km/h 6.4 km/h 94% 0.5 mm 46 W/m2
16:25 14.6 °C 13.6 °C 1017.3 hPa NW 3.2 km/h 6.4 km/h 94% 0.5 mm 40 W/m2
16:30 14.6 °C 13.6 °C 1017.3 hPa NW 3.2 km/h 9.7 km/h 94% 0.5 mm 44 W/m2
16:35 14.6 °C 13.6 °C 1017.3 hPa WNW 3.2 km/h 9.7 km/h 94% 0.5 mm 46 W/m2
16:40 14.6 °C 13.6 °C 1017.3 hPa WSW 6.4 km/h 9.7 km/h 94% 0.5 mm 88 W/m2
16:45 14.6 °C 13.6 °C 1017.3 hPa NW 4.7 km/h 9.7 km/h 94% 0.5 mm 86 W/m2
16:50 14.6 °C 13.6 °C 1017.3 hPa WNW 1.4 km/h 4.8 km/h 94% 0.2 mm 67 W/m2
16:55 14.7 °C 13.7 °C 1017.3 hPa WNW 1.4 km/h 4.8 km/h 94% 0.2 mm 58 W/m2
17:00 14.6 °C 13.6 °C 1017.6 hPa NW 3.2 km/h 4.8 km/h 94% 0.5 mm 32 W/m2
17:05 14.6 °C 13.6 °C 1017.6 hPa WNW 4.7 km/h 4.8 km/h 94% 1.0 mm 21 W/m2
17:10 14.5 °C 13.5 °C 1017.6 hPa West 6.4 km/h 6.4 km/h 94% 1.5 mm 30 W/m2
17:15 14.3 °C 13.3 °C 1017.6 hPa WNW 14.3 km/h 14.5 km/h 94% 1.5 mm 51 W/m2
17:20 14.2 °C 13.2 °C 1017.6 hPa West 4.7 km/h 9.7 km/h 94% 1.8 mm 58 W/m2
17:25 14.1 °C 13.1 °C 1017.3 hPa WNW 14.5 km/h 14.5 km/h 94% 1.8 mm 58 W/m2
17:30 14 °C 13 °C 1017.6 hPa WNW 3.2 km/h 6.4 km/h 94% 1.8 mm 46 W/m2
17:35 14 °C 13.2 °C 1017.6 hPa West 1.4 km/h 6.4 km/h 95% 1.8 mm 44 W/m2
17:40 13.9 °C 13.1 °C 1017.3 hPa West 3.2 km/h 3.2 km/h 95% 1.8 mm 51 W/m2
17:45 13.9 °C 13.1 °C 1017.6 hPa West 3.2 km/h 6.4 km/h 95% 1.8 mm 47 W/m2
17:50 13.9 °C 13.1 °C 1017.6 hPa West 4.7 km/h 6.4 km/h 95% 1.8 mm 56 W/m2
17:55 13.9 °C 13.1 °C 1017.6 hPa WNW 1.4 km/h 3.2 km/h 95% 1.8 mm 28 W/m2
18:00 13.9 °C 13.1 °C 1017.6 hPa WSW 1.4 km/h 3.2 km/h 95% 1.5 mm 32 W/m2
18:05 13.9 °C 13.1 °C 1017.6 hPa WNW 3.2 km/h 4.8 km/h 95% 1.0 mm 21 W/m2
18:10 13.9 °C 13.1 °C 1017.3 hPa Calm   3.2 km/h 95% 0.5 mm 26 W/m2
18:15 13.9 °C 13.1 °C 1017.6 hPa WNW 3.2 km/h 6.4 km/h 95% 0.2 mm 28 W/m2
18:20 13.9 °C 13.1 °C 1017.6 hPa West 1.4 km/h 3.2 km/h 95% 0.2 mm 23 W/m2
18:25 13.9 °C 13.1 °C 1017.6 hPa West 6.4 km/h 6.4 km/h 95% 0.2 mm 21 W/m2
18:30 13.9 °C 13.1 °C 1017.6 hPa Calm   3.2 km/h 95% 0.2 mm 14 W/m2
18:35 13.8 °C 13 °C 1017.6 hPa West 3.2 km/h 4.8 km/h 95% 0.2 mm 12 W/m2
18:40 13.8 °C 13 °C 1017.6 hPa West 3.2 km/h 6.4 km/h 95% 0.2 mm 9 W/m2
18:45 13.8 °C 13 °C 1017.6 hPa Calm   4.8 km/h 95% 0.2 mm 5 W/m2
18:50 13.8 °C 13 °C 1017.6 hPa WSW 1.4 km/h 6.4 km/h 95% 0.2 mm 0 W/m2
18:55 13.8 °C 13 °C 1017.6 hPa WNW 3.2 km/h 4.8 km/h 95% 0.2 mm 0 W/m2
19:00 13.8 °C 13 °C 1017.6 hPa Calm   6.4 km/h 95% 0.2 mm 0 W/m2
19:05 13.8 °C 13 °C 1017.6 hPa West 1.4 km/h 6.4 km/h 95% 0.2 mm 0 W/m2
19:10 13.7 °C 12.9 °C 1017.6 hPa WNW 1.4 km/h 4.8 km/h 95% 0.2 mm 0 W/m2
19:15 13.7 °C 12.8 °C 1017.6 hPa Calm   6.4 km/h 94% 0.2 mm 0 W/m2
19:20 13.7 °C 12.8 °C 1017.6 hPa WNW 3.2 km/h 4.8 km/h 94% 0.0 mm 0 W/m2
19:25 13.7 °C 12.8 °C 1018.0 hPa WNW 4.7 km/h 6.4 km/h 94% 0.0 mm 0 W/m2
19:30 13.7 °C 12.8 °C 1017.6 hPa Calm   11.3 km/h 94% 0.0 mm 0 W/m2
19:35 13.6 °C 12.7 °C 1018.0 hPa West 6.4 km/h 8 km/h 94% 0.0 mm 0 W/m2
19:40 13.6 °C 12.7 °C 1018.0 hPa West 3.2 km/h 6.4 km/h 94% 0.0 mm 0 W/m2
19:45 13.5 °C 12.6 °C 1018.0 hPa WSW 1.4 km/h 6.4 km/h 94% 0.0 mm 0 W/m2
19:50 13.4 °C 12.5 °C 1018.0 hPa West 4.7 km/h 12.9 km/h 94% 0.0 mm 0 W/m2
Juneau County Weather
Compliments of Weather Underground - 2 mb